Weather History for Claremore, OK

Change the Weather History Date:

Monday, December 10, 2012

  Actual Average (KTUL) Record (KTUL)
Temperature  
Mean Temperature 25 °F 40 °F  
Max Temperature 33 °F 50 °F 74 °F (1996)
Min Temperature 17 °F 30 °F 3 °F (1919)
Degree Days  
Heating Degree Days 40 25  
Month to date heating degree days 234  
Since 1 July heating degree days 870  
Moisture  
Dew Point 15 °F    
Average Humidity 63    
Maximum Humidity 86    
Minimum Humidity 48    
Precipitation  
Precipitation 0.00 in 0.08 in 1.73 in (1960)
Month to date precipitation 0.86  
Year to date precipitation 39.34  
Sea Level Pressure  
Sea Level Pressure 30.14 in    
Wind  
Wind Speed 8 mph (NW)    
Max Wind Speed 15 mph    
Max Gust Speed 23 mph    
Visibility 10 miles    
Events      
T = Trace of Precipitation, MM = Missing Value Source: NWS Daily Summary

Daily Weather History Graph

Daily Weather History Graph

Search for Another Location

Airport:

Trip Planner

Search our weather history database for the weather conditions in past years. The results will help you decide how hot, cold, wet, or windy it might be!

Date:

Astronomy

Dec. 10, 2012 Rise Set
Actual Time 7:22 AM CST 5:07 PM CST
Civil Twilight 6:54 AM CST 5:35 PM CST
Nautical Twilight 6:22 AM CST 6:07 PM CST
Astronomical Twilight 5:50 AM CST 6:39 PM CST
Moon 4:10 AM CST (12/10) 2:54 PM CST (12/10)
Length of Visible Light 10h 41m
Length of Day
9h 44m
Waning Crescent, 10% of the Moon is Illuminated
Dec 10
Waning Crescent
Dec 13
New
Dec 19
First Quarter
Dec 28
Full
Jan 4
Last Quarter

Hourly Weather History & Observations

Time (CST) Temp. Windchill Dew Point Humidity Pressure Visibility Wind Dir Wind Speed Gust Speed Precip Events Conditions
12:15 AM 30.2 °F 21.3 °F 14.0 °F 51% 30.14 in 10.0 mi North 10.4 mph - N/A   Clear
12:35 AM 28.4 °F 19.7 °F 14.0 °F 55% 30.14 in 10.0 mi NNW 9.2 mph 16.1 mph N/A   Clear
12:55 AM 28.4 °F 21.2 °F 14.0 °F 55% 30.13 in 10.0 mi North 6.9 mph - N/A   Clear
1:15 AM 28.4 °F 19.1 °F 15.8 °F 59% 30.14 in 10.0 mi NNW 10.4 mph - N/A   Clear
1:35 AM 28.4 °F 19.7 °F 15.8 °F 59% 30.11 in 10.0 mi North 9.2 mph 17.3 mph N/A   Clear
1:55 AM 28.4 °F 20.4 °F 15.8 °F 59% 30.11 in 10.0 mi NNW 8.1 mph - N/A   Clear
2:15 AM 28.4 °F 21.2 °F 15.8 °F 59% 30.13 in 10.0 mi NW 6.9 mph - N/A   Clear
2:35 AM 28.4 °F 19.7 °F 15.8 °F 59% 30.13 in 10.0 mi NNW 9.2 mph - N/A   Clear
2:55 AM 28.4 °F 17.5 °F 14.0 °F 55% 30.11 in 10.0 mi NNW 13.8 mph 20.7 mph N/A   Clear
3:15 AM 28.4 °F 18.5 °F 14.0 °F 55% 30.12 in 10.0 mi NW 11.5 mph 18.4 mph N/A   Clear
3:35 AM 28.4 °F 20.4 °F 14.0 °F 55% 30.13 in 10.0 mi NW 8.1 mph - N/A   Clear
3:55 AM 28.4 °F 18.0 °F 14.0 °F 55% 30.12 in 10.0 mi NNW 12.7 mph 18.4 mph N/A   Clear
4:15 AM 26.6 °F 16.8 °F 14.0 °F 59% 30.12 in 10.0 mi NNW 10.4 mph 17.3 mph N/A   Clear
4:35 AM 26.6 °F 17.5 °F 14.0 °F 59% 30.13 in 10.0 mi NW 9.2 mph 18.4 mph N/A   Clear
4:55 AM 26.6 °F 16.2 °F 14.0 °F 59% 30.12 in 10.0 mi NW 11.5 mph 18.4 mph N/A   Clear
5:15 AM 26.6 °F 15.2 °F 14.0 °F 59% 30.12 in 10.0 mi NNW 13.8 mph 20.7 mph N/A   Clear
5:35 AM 26.6 °F 15.2 °F 14.0 °F 59% 30.13 in 10.0 mi NNW 13.8 mph 19.6 mph N/A   Clear
5:55 AM 26.6 °F 15.7 °F 14.0 °F 59% 30.15 in 10.0 mi NNW 12.7 mph - N/A   Scattered Clouds
6:15 AM 26.6 °F 15.2 °F 14.0 °F 59% 30.15 in 10.0 mi NW 13.8 mph 21.9 mph N/A   Clear
6:35 AM 24.8 °F 15.3 °F 14.0 °F 64% 30.17 in 10.0 mi NW 9.2 mph 16.1 mph N/A   Clear
6:55 AM 24.8 °F 12.9 °F 15.8 °F 69% 30.18 in 10.0 mi NW 13.8 mph 19.6 mph N/A   Scattered Clouds
7:15 AM 24.8 °F 12.4 °F 14.0 °F 64% 30.17 in 10.0 mi NNW 15.0 mph 23.0 mph N/A   Mostly Cloudy
7:35 AM 23.0 °F 12.4 °F 14.0 °F 68% 30.18 in 10.0 mi NW 10.4 mph 19.6 mph N/A   Scattered Clouds
7:55 AM 23.0 °F 11.7 °F 14.0 °F 68% 30.19 in 10.0 mi NNW 11.5 mph 17.3 mph N/A   Mostly Cloudy
8:15 AM 23.0 °F 11.1 °F 12.2 °F 63% 30.19 in 10.0 mi NNW 12.7 mph 16.1 mph N/A   Scattered Clouds
8:35 AM 21.2 °F 10.9 °F 12.2 °F 68% 30.19 in 10.0 mi NNW 9.2 mph - N/A   Clear
8:55 AM 23.0 °F 12.4 °F 12.2 °F 63% 30.19 in 10.0 mi NNW 10.4 mph 18.4 mph N/A   Scattered Clouds
9:15 AM 23.0 °F 12.4 °F 12.2 °F 63% 30.18 in 10.0 mi NNW 10.4 mph - N/A   Scattered Clouds
9:35 AM 23.0 °F 13.9 °F 12.2 °F 63% 30.19 in 10.0 mi NW 8.1 mph - N/A   Mostly Cloudy
9:55 AM 23.0 °F 15.8 °F 14.0 °F 68% 30.19 in 10.0 mi NW 5.8 mph - N/A   Overcast
10:15 AM 26.6 °F 19.1 °F 15.8 °F 64% 30.19 in 10.0 mi NW 6.9 mph - N/A   Scattered Clouds
10:55 AM 28.4 °F 18.5 °F 17.6 °F 64% 30.19 in 10.0 mi NW 11.5 mph - N/A   Clear
11:15 AM 28.4 °F 19.1 °F 17.6 °F 64% 30.19 in 10.0 mi NW 10.4 mph - N/A   Clear
11:35 AM 28.4 °F 19.1 °F 17.6 °F 64% 30.18 in 10.0 mi WNW 10.4 mph - N/A   Clear
11:55 AM 30.2 °F 20.8 °F 17.6 °F 60% 30.17 in 10.0 mi WNW 11.5 mph - N/A   Clear
12:15 PM 30.2 °F 21.9 °F 17.6 °F 60% 30.16 in 10.0 mi North 9.2 mph - N/A   Clear
12:35 PM 30.2 °F 21.3 °F 17.6 °F 60% 30.15 in 10.0 mi NW 10.4 mph - N/A   Clear
12:55 PM 32.0 °F 24.2 °F 17.6 °F 55% 30.14 in 10.0 mi NW 9.2 mph - N/A   Clear
1:15 PM 32.0 °F 23.6 °F 19.4 °F 60% 30.13 in 10.0 mi WNW 10.4 mph 17.3 mph N/A   Clear
1:35 PM 32.0 °F 23.0 °F 19.4 °F 60% 30.12 in 10.0 mi WNW 11.5 mph - N/A   Clear
1:55 PM 32.0 °F 24.2 °F 19.4 °F 60% 30.12 in 10.0 mi NW 9.2 mph 16.1 mph N/A   Clear
2:15 PM 32.0 °F 24.2 °F 19.4 °F 60% 30.12 in 10.0 mi WNW 9.2 mph - N/A   Clear
2:35 PM 33.8 °F 28.6 °F 19.4 °F 56% 30.11 in 10.0 mi NNW 5.8 mph - N/A   Clear
2:55 PM 33.8 °F 29.6 °F 17.6 °F 52% 30.10 in 10.0 mi NW 4.6 mph - N/A   Clear
3:15 PM 33.8 °F 27.0 °F 17.6 °F 52% 30.11 in 10.0 mi WNW 8.1 mph 16.1 mph N/A   Clear
3:35 PM 33.8 °F 26.4 °F 17.6 °F 52% 30.10 in 10.0 mi WNW 9.2 mph - N/A   Clear
3:55 PM 33.8 °F 27.0 °F 17.6 °F 52% 30.10 in 10.0 mi WNW 8.1 mph - N/A   Clear
4:15 PM 33.8 °F 29.6 °F 17.6 °F 52% 30.10 in 10.0 mi West 4.6 mph - N/A   Clear
4:35 PM 32.0 °F 26.4 °F 17.6 °F 55% 30.11 in 10.0 mi NNW 5.8 mph - N/A   Clear
4:55 PM 32.0 °F 26.4 °F 15.8 °F 51% 30.11 in 10.0 mi NNW 5.8 mph - N/A   Clear
5:15 PM 32.0 °F - 15.8 °F 51% 30.11 in 10.0 mi Calm Calm - N/A   Clear
5:35 PM 32.0 °F - 14.0 °F 48% 30.11 in 10.0 mi Calm Calm - N/A   Clear
5:55 PM 30.2 °F - 14.0 °F 51% 30.11 in 10.0 mi Calm Calm - N/A   Clear
6:15 PM 28.4 °F - 15.8 °F 59% 30.11 in 10.0 mi Calm Calm - N/A   Clear
6:35 PM 26.6 °F - 15.8 °F 64% 30.12 in 10.0 mi Calm Calm - N/A   Clear
6:55 PM 24.8 °F - 14.0 °F 64% 30.13 in 10.0 mi Calm Calm - N/A   Clear
7:15 PM 23.0 °F 18.4 °F 15.8 °F 74% 30.12 in 10.0 mi SE 3.5 mph - N/A   Clear
7:35 PM 23.0 °F 18.4 °F 15.8 °F 74% 30.11 in 10.0 mi SSE 3.5 mph - N/A   Clear
7:55 PM 23.0 °F - 15.8 °F 74% 30.11 in 10.0 mi Calm Calm - N/A   Clear
8:15 PM 21.2 °F - 14.0 °F 74% 30.11 in 10.0 mi Calm Calm - N/A   Clear
8:35 PM 21.2 °F 14.9 °F 15.8 °F 80% 30.12 in 10.0 mi SSE 4.6 mph - N/A   Clear
8:55 PM 21.2 °F 16.4 °F 15.8 °F 80% 30.12 in 10.0 mi SE 3.5 mph - N/A   Clear
9:15 PM 21.2 °F - 14.0 °F 74% 30.12 in 10.0 mi Calm Calm - N/A   Clear
9:35 PM 21.2 °F - 15.8 °F 80% 30.13 in 10.0 mi Calm Calm - N/A   Clear
9:55 PM 19.4 °F - 15.8 °F 86% 30.13 in 10.0 mi Calm Calm - N/A   Clear
10:15 PM 19.4 °F - 15.8 °F 86% 30.14 in 10.0 mi Calm Calm - N/A   Clear
10:35 PM 19.4 °F - 15.8 °F 86% 30.14 in 10.0 mi Calm Calm - N/A   Clear
10:55 PM 17.6 °F - 14.0 °F 86% 30.14 in 10.0 mi Calm Calm - N/A   Clear
11:15 PM 21.2 °F 16.4 °F 15.8 °F 80% 30.14 in 10.0 mi South 3.5 mph - N/A   Clear
11:35 PM 19.4 °F 14.3 °F 14.0 °F 80% 30.15 in 10.0 mi South 3.5 mph - N/A   Clear
11:55 PM 21.2 °F 14.9 °F 15.8 °F 80% 30.15 in 10.0 mi South 4.6 mph - N/A   Clear